Time,TemperatureF,DewpointF,PressureIn,WindDirection,WindDirectionDegrees,WindSpeedMPH,WindSpeedGustMPH,Humidity,HourlyPrecipIn,Conditions,Clouds,dailyrainin,SoftwareType,DateUTC
2013-07-08 00:01:00,68.5,64.8,29.75,WSW,255,8.1,8.7,88,0.00,,BKN210,0.00,VWS V14.01,2013-07-08 04:01:00,
2013-07-08 00:02:00,68.5,64.8,29.75,SW,221,5.4,8.7,88,0.00,,BKN210,0.00,VWS V14.01,2013-07-08 04:02:00,
2013-07-08 00:03:00,68.7,64.9,29.75,SSW,203,8.1,8.7,88,0.00,,BKN210,0.00,VWS V14.01,2013-07-08 04:03:00,
2013-07-08 00:04:00,68.7,65.3,29.75,SW,233,3.6,8.7,89,0.00,,BKN210,0.00,VWS V14.01,2013-07-08 04:04:00,
2013-07-08 00:09:00,68.7,65.3,29.75,WNW,289,5.8,11.0,89,0.00,,BKN210,0.00,VWS V14.01,2013-07-08 04:09:00,
2013-07-08 00:14:00,68.9,65.8,29.75,SW,219,5.4,8.3,90,0.00,,BKN210,0.00,VWS V14.01,2013-07-08 04:14:00,
2013-07-08 00:20:00,68.7,65.6,29.75,SW,234,5.4,10.1,90,0.00,,BKN210,0.00,VWS V14.01,2013-07-08 04:20:00,
2013-07-08 00:23:00,68.7,65.3,29.72,WSW,243,8.3,9.6,89,0.00,,BKN210,0.00,VWS V14.01,2013-07-08 04:23:00,
2013-07-08 00:28:00,68.7,65.6,29.72,WSW,239,8.1,8.7,90,0.00,,BKN210,0.00,VWS V14.01,2013-07-08 04:28:00,
2013-07-08 00:33:00,68.7,65.6,29.72,WSW,246,8.3,8.3,90,0.00,,OVC065,0.00,VWS V14.01,2013-07-08 04:33:00,
2013-07-08 00:38:00,68.9,65.8,29.72,WSW,249,9.2,13.2,90,0.00,,OVC065,0.00,VWS V14.01,2013-07-08 04:38:00,
2013-07-08 00:43:00,68.9,65.8,29.72,SW,233,8.7,9.6,90,0.00,,OVC065,0.00,VWS V14.01,2013-07-08 04:43:00,
2013-07-08 00:48:00,68.7,65.9,29.72,SSW,213,5.4,7.6,91,0.00,,OVC065,0.00,VWS V14.01,2013-07-08 04:48:00,
2013-07-08 00:53:00,68.5,66.1,29.72,SW,232,5.4,10.1,92,0.00,,OVC065,0.00,VWS V14.01,2013-07-08 04:53:00,
2013-07-08 00:58:00,68.7,66.2,29.72,SW,231,9.6,9.6,92,0.00,,OVC065,0.00,VWS V14.01,2013-07-08 04:58:00,
2013-07-08 01:03:00,68.7,65.9,29.72,SW,214,7.6,11.0,91,0.00,,OVC045,0.00,VWS V14.01,2013-07-08 05:03:00,
2013-07-08 01:08:00,68.7,66.2,29.72,WSW,239,4.9,7.6,92,0.00,,OVC045,0.00,VWS V14.01,2013-07-08 05:08:00,
2013-07-08 01:13:00,68.7,66.2,29.72,WSW,241,4.0,8.7,92,0.00,,OVC045,0.00,VWS V14.01,2013-07-08 05:13:00,
2013-07-08 01:18:00,68.9,66.4,29.72,SSW,192,5.8,8.1,92,0.00,,OVC045,0.00,VWS V14.01,2013-07-08 05:18:00,
2013-07-08 01:23:00,68.9,66.4,29.72,SSW,209,4.0,9.6,92,0.00,,OVC045,0.00,VWS V14.01,2013-07-08 05:23:00,
2013-07-08 01:28:00,68.9,66.4,29.72,SW,232,5.4,8.1,92,0.00,,OVC045,0.00,VWS V14.01,2013-07-08 05:28:00,
2013-07-08 01:33:00,68.9,66.4,29.72,SW,221,10.5,10.5,92,0.00,,OVC045,0.00,VWS V14.01,2013-07-08 05:33:00,
2013-07-08 01:38:00,68.9,66.4,29.72,SW,222,6.3,8.3,92,0.00,,OVC045,0.00,VWS V14.01,2013-07-08 05:38:00,
2013-07-08 01:43:00,68.9,66.4,29.72,SSW,207,5.8,8.7,92,0.00,,OVC045,0.00,VWS V14.01,2013-07-08 05:43:00,
2013-07-08 01:48:00,68.9,66.4,29.72,SSW,211,7.6,8.7,92,0.00,,OVC045,0.00,VWS V14.01,2013-07-08 05:48:00,
2013-07-08 01:53:00,68.9,66.7,29.75,WSW,238,8.3,8.7,93,0.00,,OVC045,0.00,VWS V14.01,2013-07-08 05:53:00,
2013-07-08 01:58:00,68.9,66.4,29.75,WNW,283,6.3,13.2,92,0.00,,OVC045,0.00,VWS V14.01,2013-07-08 05:58:00,
2013-07-08 02:03:00,68.9,66.7,29.75,WSW,246,10.1,12.8,93,0.00,,OVC032,0.00,VWS V14.01,2013-07-08 06:03:00,
2013-07-08 02:08:00,68.9,66.7,29.72,WSW,240,3.1,8.7,93,0.00,,OVC032,0.00,VWS V14.01,2013-07-08 06:08:00,
2013-07-08 02:13:00,68.9,66.7,29.72,West,264,5.4,5.8,93,0.00,,OVC032,0.00,VWS V14.01,2013-07-08 06:13:00,
2013-07-08 02:18:00,68.9,66.7,29.72,SW,231,6.3,8.7,93,0.00,,OVC032,0.00,VWS V14.01,2013-07-08 06:18:00,
2013-07-08 02:23:00,68.9,66.7,29.75,SSW,210,8.1,10.1,93,0.00,,OVC032,0.00,VWS V14.01,2013-07-08 06:23:00,
2013-07-08 02:28:00,68.9,66.7,29.75,WSW,248,8.1,8.1,93,0.00,,OVC032,0.00,VWS V14.01,2013-07-08 06:28:00,
2013-07-08 02:33:00,68.9,66.7,29.75,SW,233,6.3,8.3,93,0.00,,OVC100,0.00,VWS V14.01,2013-07-08 06:33:00,
2013-07-08 02:38:00,68.9,66.7,29.72,SSW,201,8.1,8.1,93,0.00,,OVC100,0.00,VWS V14.01,2013-07-08 06:38:00,
2013-07-08 02:43:00,68.9,67.1,29.72,WSW,242,4.0,8.7,94,0.00,,OVC100,0.00,VWS V14.01,2013-07-08 06:43:00,
2013-07-08 02:48:00,68.9,67.1,29.72,SSW,213,6.3,8.1,94,0.00,,OVC100,0.00,VWS V14.01,2013-07-08 06:48:00,
2013-07-08 02:53:00,68.9,67.1,29.72,SW,232,4.9,5.4,94,0.00,,OVC100,0.00,VWS V14.01,2013-07-08 06:53:00,
2013-07-08 02:58:00,68.9,67.1,29.72,SSW,212,4.0,6.3,94,0.00,,OVC100,0.00,VWS V14.01,2013-07-08 06:58:00,
2013-07-08 03:03:00,68.9,67.1,29.72,WSW,238,6.3,6.3,94,0.00,,BKN250,0.00,VWS V14.01,2013-07-08 07:03:00,
2013-07-08 03:08:00,68.9,67.1,29.75,WSW,242,3.1,5.8,94,0.00,,BKN250,0.00,VWS V14.01,2013-07-08 07:08:00,
2013-07-08 03:13:00,68.9,67.1,29.75,SW,214,5.4,5.4,94,0.00,,BKN250,0.00,VWS V14.01,2013-07-08 07:13:00,
2013-07-08 03:18:00,69.1,67.6,29.75,WSW,246,5.8,5.8,95,0.00,,BKN250,0.00,VWS V14.01,2013-07-08 07:18:00,
2013-07-08 03:23:00,68.9,67.4,29.75,West,267,3.6,4.0,95,0.00,,BKN250,0.00,VWS V14.01,2013-07-08 07:23:00,
2013-07-08 03:28:00,68.9,67.4,29.75,SW,223,4.9,5.4,95,0.00,,BKN250,0.00,VWS V14.01,2013-07-08 07:28:00,
2013-07-08 03:34:00,69.1,67.6,29.75,WSW,244,3.1,4.0,95,0.00,,OVC100,0.00,VWS V14.01,2013-07-08 07:34:00,
2013-07-08 03:39:00,69.1,67.6,29.75,WNW,302,4.0,6.3,95,0.00,,OVC100,0.00,VWS V14.01,2013-07-08 07:39:00,
2013-07-08 03:44:00,69.1,67.6,29.75,SW,216,7.2,7.6,95,0.00,,OVC100,0.00,VWS V14.01,2013-07-08 07:44:00,
2013-07-08 03:49:00,69.1,67.6,29.75,SW,227,5.8,5.8,95,0.00,,OVC100,0.00,VWS V14.01,2013-07-08 07:49:00,
2013-07-08 03:54:00,68.9,67.4,29.75,WSW,241,3.6,6.3,95,0.00,,OVC100,0.00,VWS V14.01,2013-07-08 07:54:00,
2013-07-08 03:59:00,69.1,67.6,29.75,SW,219,3.1,7.2,95,0.00,,OVC100,0.00,VWS V14.01,2013-07-08 07:59:00,
2013-07-08 04:04:00,69.1,67.6,29.75,SW,235,7.6,7.6,95,0.00,,OVC100,0.00,VWS V14.01,2013-07-08 08:04:00,
2013-07-08 04:09:00,69.1,67.6,29.75,SSW,211,5.8,6.3,95,0.00,,OVC100,0.00,VWS V14.01,2013-07-08 08:09:00,
2013-07-08 04:14:00,69.3,67.7,29.75,SSW,207,3.1,8.3,95,0.00,,OVC100,0.00,VWS V14.01,2013-07-08 08:14:00,
2013-07-08 04:19:00,69.3,68.0,29.75,WSW,243,5.4,6.3,96,0.00,,OVC100,0.00,VWS V14.01,2013-07-08 08:19:00,
2013-07-08 04:24:00,69.3,68.0,29.75,SW,230,3.1,8.7,96,0.00,,OVC100,0.00,VWS V14.01,2013-07-08 08:24:00,
2013-07-08 04:29:00,69.3,67.7,29.75,SSW,213,6.3,10.1,95,0.00,,OVC100,0.00,VWS V14.01,2013-07-08 08:29:00,
2013-07-08 04:34:00,69.3,68.0,29.75,SW,224,7.6,7.6,96,0.00,,OVC100,0.00,VWS V14.01,2013-07-08 08:34:00,
2013-07-08 04:39:00,69.4,68.2,29.75,SW,214,5.4,8.1,96,0.00,,OVC100,0.00,VWS V14.01,2013-07-08 08:39:00,
2013-07-08 04:44:00,69.3,68.0,29.75,SW,214,4.0,5.8,96,0.00,,OVC100,0.00,VWS V14.01,2013-07-08 08:44:00,
2013-07-08 04:49:00,69.4,68.2,29.75,SW,226,4.0,5.8,96,0.00,,OVC100,0.00,VWS V14.01,2013-07-08 08:49:00,
2013-07-08 04:54:00,69.4,68.2,29.75,SW,230,3.1,6.3,96,0.00,,OVC100,0.00,VWS V14.01,2013-07-08 08:54:00,
2013-07-08 04:59:00,69.4,68.2,29.75,WSW,248,3.6,6.3,96,0.00,,OVC100,0.00,VWS V14.01,2013-07-08 08:59:00,
2013-07-08 05:04:00,69.4,68.2,29.75,SSW,207,3.6,8.1,96,0.00,,,0.00,VWS V14.01,2013-07-08 09:04:00,
2013-07-08 05:09:00,69.6,68.4,29.75,SW,222,5.4,6.3,96,0.00,,,0.00,VWS V14.01,2013-07-08 09:09:00,
2013-07-08 05:14:00,69.8,68.3,29.75,SW,236,3.1,7.6,95,0.00,,,0.00,VWS V14.01,2013-07-08 09:14:00,
2013-07-08 05:19:00,69.8,67.9,29.75,SW,235,3.1,5.4,94,0.00,,,0.00,VWS V14.01,2013-07-08 09:19:00,
2013-07-08 05:24:00,69.8,67.6,29.75,SSW,205,3.6,5.8,93,0.00,,,0.00,VWS V14.01,2013-07-08 09:24:00,
2013-07-08 05:29:00,69.8,67.3,29.75,SSW,212,4.9,7.6,92,0.00,,,0.00,VWS V14.01,2013-07-08 09:29:00,
2013-07-08 05:34:00,69.8,67.0,29.75,SSW,202,4.0,5.8,91,0.00,,OVC009,0.00,VWS V14.01,2013-07-08 09:34:00,
2013-07-08 05:39:00,69.8,66.7,29.75,WSW,247,3.6,5.4,90,0.00,,OVC009,0.00,VWS V14.01,2013-07-08 09:39:00,
2013-07-08 05:44:00,69.8,66.7,29.75,SW,227,4.9,6.3,90,0.00,,OVC009,0.00,VWS V14.01,2013-07-08 09:44:00,
2013-07-08 05:49:00,69.8,66.7,29.75,SW,229,6.3,6.3,90,0.00,,OVC009,0.00,VWS V14.01,2013-07-08 09:49:00,
2013-07-08 05:50:00,69.8,66.7,29.75,SW,235,4.9,4.9,90,0.00,,OVC009,0.00,VWS V14.01,2013-07-08 09:50:00,
2013-07-08 05:55:00,69.6,66.5,29.75,SW,214,2.7,3.6,90,0.00,,OVC009,0.00,VWS V14.01,2013-07-08 09:55:00,
2013-07-08 06:00:00,69.6,66.5,29.75,WSW,248,4.9,4.9,90,0.00,,OVC009,0.00,VWS V14.01,2013-07-08 10:00:00,
2013-07-08 06:05:00,69.6,66.5,29.75,West,268,5.4,8.1,90,0.00,,OVC009,0.00,VWS V14.01,2013-07-08 10:05:00,
2013-07-08 06:10:00,69.6,66.2,29.75,SW,214,6.3,6.3,89,0.00,,OVC009,0.00,VWS V14.01,2013-07-08 10:10:00,
2013-07-08 06:15:00,69.6,66.2,29.75,SW,216,6.3,8.7,89,0.00,,OVC009,0.00,VWS V14.01,2013-07-08 10:15:00,
2013-07-08 06:20:00,69.6,66.2,29.75,SW,230,3.6,3.6,89,0.00,,OVC009,0.00,VWS V14.01,2013-07-08 10:20:00,
2013-07-08 06:25:00,69.6,66.2,29.75,SSW,211,4.0,4.0,89,0.00,,OVC009,0.00,VWS V14.01,2013-07-08 10:25:00,
2013-07-08 06:30:00,69.8,66.3,29.75,WSW,246,5.4,6.3,89,0.00,,OVC009,0.00,VWS V14.01,2013-07-08 10:30:00,
2013-07-08 06:35:00,69.8,66.3,29.75,SSW,209,2.7,3.6,89,0.00,,OVC009,0.00,VWS V14.01,2013-07-08 10:35:00,
2013-07-08 06:41:00,69.8,66.3,29.75,SW,221,2.7,3.1,89,0.00,,OVC009,0.00,VWS V14.01,2013-07-08 10:41:00,
2013-07-08 06:46:00,69.8,66.3,29.75,South,182,3.6,4.5,89,0.00,,OVC009,0.00,VWS V14.01,2013-07-08 10:46:00,
2013-07-08 06:51:00,69.8,66.7,29.75,SW,229,3.1,4.0,90,0.00,,OVC009,0.00,VWS V14.01,2013-07-08 10:51:00,
2013-07-08 06:56:00,70.0,66.8,29.75,SE,138,4.9,6.3,90,0.00,,OVC009,0.00,VWS V14.01,2013-07-08 10:56:00,
2013-07-08 07:01:00,70.0,66.8,29.75,SW,227,6.3,6.3,90,0.00,,,0.00,VWS V14.01,2013-07-08 11:01:00,
2013-07-08 07:06:00,70.0,66.8,29.75,WSW,242,5.4,7.6,90,0.00,,,0.00,VWS V14.01,2013-07-08 11:06:00,
2013-07-08 07:10:00,70.0,66.8,29.75,WSW,247,5.8,5.8,90,0.00,,,0.00,VWS V14.01,2013-07-08 11:10:00,
2013-07-08 07:15:00,70.0,66.8,29.75,West,259,2.7,4.9,90,0.00,,,0.00,VWS V14.01,2013-07-08 11:15:00,
2013-07-08 07:20:00,70.2,67.0,29.75,SW,232,5.8,5.8,90,0.00,,,0.00,VWS V14.01,2013-07-08 11:20:00,
2013-07-08 07:25:00,70.2,67.0,29.78,SW,218,8.1,8.1,90,0.00,,,0.00,VWS V14.01,2013-07-08 11:25:00,
2013-07-08 07:30:00,70.2,67.0,29.78,SW,222,6.3,8.1,90,0.00,,,0.00,VWS V14.01,2013-07-08 11:30:00,
2013-07-08 07:35:00,70.3,67.2,29.78,West,267,5.4,5.4,90,0.00,,,0.00,VWS V14.01,2013-07-08 11:35:00,
2013-07-08 07:40:00,70.5,67.7,29.78,SW,234,7.6,8.3,91,0.00,,,0.00,VWS V14.01,2013-07-08 11:40:00,
2013-07-08 07:45:00,70.7,67.9,29.78,SW,228,5.4,8.3,91,0.00,,,0.00,VWS V14.01,2013-07-08 11:45:00,
2013-07-08 07:50:00,70.7,67.9,29.78,WSW,246,3.1,5.4,91,0.00,,,0.00,VWS V14.01,2013-07-08 11:50:00,
2013-07-08 07:55:00,70.7,67.6,29.78,SW,232,3.1,7.6,90,0.00,,,0.00,VWS V14.01,2013-07-08 11:55:00,
2013-07-08 08:00:00,70.9,67.7,29.78,WSW,248,7.6,7.6,90,0.00,,,0.00,VWS V14.01,2013-07-08 12:00:00,
2013-07-08 08:05:00,71.1,67.9,29.78,SW,221,4.9,5.8,90,0.00,,,0.00,VWS V14.01,2013-07-08 12:05:00,
2013-07-08 08:10:00,71.2,68.4,29.78,SSW,212,10.5,10.5,91,0.00,,,0.00,VWS V14.01,2013-07-08 12:10:00,
2013-07-08 08:15:00,71.2,68.1,29.78,SW,219,3.6,4.5,90,0.00,,,0.00,VWS V14.01,2013-07-08 12:15:00,
2013-07-08 08:20:00,71.2,68.1,29.78,WSW,245,5.8,7.6,90,0.00,,,0.00,VWS V14.01,2013-07-08 12:20:00,
2013-07-08 08:25:00,71.6,68.1,29.78,SSW,198,3.6,3.6,89,0.00,,,0.00,VWS V14.01,2013-07-08 12:25:00,
2013-07-08 08:30:00,71.8,68.3,29.78,SSW,212,5.4,8.7,89,0.00,,,0.00,VWS V14.01,2013-07-08 12:30:00,
2013-07-08 08:35:00,71.8,68.3,29.78,SW,225,4.0,4.0,89,0.00,,,0.00,VWS V14.01,2013-07-08 12:35:00,
2013-07-08 08:40:00,72.0,68.5,29.78,WSW,241,4.0,5.8,89,0.00,,,0.00,VWS V14.01,2013-07-08 12:40:00,
2013-07-08 08:45:00,72.0,68.5,29.78,WSW,257,5.8,5.8,89,0.00,,,0.00,VWS V14.01,2013-07-08 12:45:00,
2013-07-08 08:50:00,72.0,68.1,29.78,West,267,5.8,6.3,88,0.00,,,0.00,VWS V14.01,2013-07-08 12:50:00,
2013-07-08 08:55:00,72.0,67.8,29.78,WSW,250,6.3,6.3,87,0.00,,,0.00,VWS V14.01,2013-07-08 12:55:00,
2013-07-08 09:00:00,72.0,67.4,29.78,WSW,240,5.4,5.4,86,0.00,,,0.00,VWS V14.01,2013-07-08 13:00:00,
2013-07-08 09:05:00,72.1,68.0,29.78,WNW,297,6.3,8.7,87,0.00,,,0.00,VWS V14.01,2013-07-08 13:05:00,
2013-07-08 09:10:00,72.1,68.0,29.78,SSW,209,4.0,6.3,87,0.00,,,0.00,VWS V14.01,2013-07-08 13:10:00,
2013-07-08 09:15:00,72.0,67.1,29.78,SW,230,6.3,6.3,85,0.00,,,0.00,VWS V14.01,2013-07-08 13:15:00,
2013-07-08 09:20:00,72.0,67.1,29.78,WSW,238,4.0,6.3,85,0.00,,,0.00,VWS V14.01,2013-07-08 13:20:00,
2013-07-08 09:25:00,72.0,67.4,29.78,West,263,5.8,5.8,86,0.00,,,0.00,VWS V14.01,2013-07-08 13:25:00,
2013-07-08 09:30:00,72.0,67.8,29.78,SSW,211,3.6,6.3,87,0.00,,,0.00,VWS V14.01,2013-07-08 13:30:00,
2013-07-08 09:36:00,71.8,67.6,29.78,West,264,5.8,11.0,87,0.00,,BKN035,0.00,VWS V14.01,2013-07-08 13:36:00,
2013-07-08 09:41:00,71.8,67.6,29.78,SW,217,4.9,7.6,87,0.00,,BKN035,0.00,VWS V14.01,2013-07-08 13:41:00,
2013-07-08 09:46:00,72.0,68.1,29.78,WSW,244,10.5,10.5,88,0.00,,BKN035,0.00,VWS V14.01,2013-07-08 13:46:00,
2013-07-08 09:51:00,72.3,68.5,29.78,WNW,289,5.4,8.7,88,0.00,,BKN035,0.00,VWS V14.01,2013-07-08 13:51:00,
2013-07-08 09:56:00,72.9,69.3,29.78,WSW,243,7.6,10.5,89,0.00,,BKN035,0.00,VWS V14.01,2013-07-08 13:56:00,
2013-07-08 10:01:00,73.2,69.0,29.78,SW,218,5.4,8.3,87,0.00,,BKN035,0.00,VWS V14.01,2013-07-08 14:01:00,
2013-07-08 10:06:00,73.8,69.2,29.78,SW,231,11.0,11.0,86,0.00,,BKN035,0.00,VWS V14.01,2013-07-08 14:06:00,
2013-07-08 10:11:00,73.4,67.4,29.78,SW,234,8.7,8.7,82,0.00,,BKN035,0.00,VWS V14.01,2013-07-08 14:11:00,
2013-07-08 10:16:00,74.1,68.5,29.78,SW,227,8.3,10.5,83,0.00,,BKN035,0.00,VWS V14.01,2013-07-08 14:16:00,
2013-07-08 10:21:00,74.8,69.2,29.78,SSW,209,8.3,8.7,83,0.00,,BKN035,0.00,VWS V14.01,2013-07-08 14:21:00,
2013-07-08 10:26:00,75.2,68.8,29.78,SSW,198,6.3,12.3,81,0.00,,BKN035,0.00,VWS V14.01,2013-07-08 14:26:00,
2013-07-08 10:31:00,75.4,68.6,29.78,SSW,213,5.4,9.6,80,0.00,,BKN035,0.00,VWS V14.01,2013-07-08 14:31:00,
2013-07-08 10:36:00,75.6,68.4,29.78,WNW,301,5.4,8.7,79,0.00,,BKN040,0.00,VWS V14.01,2013-07-08 14:36:00,
2013-07-08 10:41:00,75.6,67.7,29.78,WSW,252,4.0,8.1,76,0.00,,BKN040,0.00,VWS V14.01,2013-07-08 14:41:00,
2013-07-08 10:46:00,76.3,69.1,29.78,SSW,212,8.1,8.7,79,0.00,,BKN040,0.00,VWS V14.01,2013-07-08 14:46:00,
2013-07-08 10:51:00,76.1,67.4,29.78,SW,228,3.6,8.1,74,0.00,,BKN040,0.00,VWS V14.01,2013-07-08 14:51:00,
2013-07-08 10:56:00,75.9,66.0,29.78,West,279,4.0,12.3,71,0.00,,BKN040,0.00,VWS V14.01,2013-07-08 14:56:00,
2013-07-08 11:01:00,76.3,66.4,29.78,West,259,6.7,12.8,71,0.00,,BKN040,0.00,VWS V14.01,2013-07-08 15:01:00,
2013-07-08 11:06:00,76.3,66.8,29.78,WSW,244,5.4,8.7,72,0.00,,BKN040,0.00,VWS V14.01,2013-07-08 15:06:00,
2013-07-08 11:11:00,76.1,66.2,29.80,SSW,204,4.0,11.4,71,0.00,,BKN040,0.00,VWS V14.01,2013-07-08 15:11:00,
2013-07-08 11:16:00,76.5,66.5,29.80,SSW,195,8.7,11.0,71,0.00,,BKN040,0.00,VWS V14.01,2013-07-08 15:16:00,
2013-07-08 11:21:00,76.8,67.3,29.80,West,274,8.7,11.9,72,0.00,,BKN040,0.00,VWS V14.01,2013-07-08 15:21:00,
2013-07-08 11:26:00,77.2,66.8,29.80,SW,220,7.6,12.8,70,0.00,,BKN040,0.00,VWS V14.01,2013-07-08 15:26:00,
2013-07-08 11:31:00,77.7,67.3,29.80,WSW,239,5.8,12.8,70,0.00,,BKN040,0.00,VWS V14.01,2013-07-08 15:31:00,
2013-07-08 11:36:00,78.1,67.2,29.80,SW,235,8.3,8.3,69,0.00,,BKN040,0.00,VWS V14.01,2013-07-08 15:36:00,
2013-07-08 11:41:00,78.1,66.4,29.80,SSW,205,8.1,11.9,67,0.00,,BKN040,0.00,VWS V14.01,2013-07-08 15:41:00,
2013-07-08 11:46:00,77.9,66.2,29.80,SW,219,6.3,8.7,67,0.00,,BKN040,0.00,VWS V14.01,2013-07-08 15:46:00,
2013-07-08 11:51:00,78.6,67.3,29.80,SSW,211,5.8,8.3,68,0.00,,BKN040,0.00,VWS V14.01,2013-07-08 15:51:00,
2013-07-08 11:56:00,78.6,66.4,29.80,SSW,204,8.1,10.1,66,0.00,,BKN040,0.00,VWS V14.01,2013-07-08 15:56:00,
2013-07-08 12:01:00,79.3,67.6,29.80,SW,230,5.8,8.7,67,0.00,,OVC021,0.00,VWS V14.01,2013-07-08 16:01:00,
2013-07-08 12:06:00,78.8,65.7,29.80,South,180,7.6,11.0,64,0.00,,OVC021,0.00,VWS V14.01,2013-07-08 16:06:00,
2013-07-08 12:12:00,79.2,66.5,29.80,SW,218,6.3,9.6,65,0.00,,OVC021,0.00,VWS V14.01,2013-07-08 16:12:00,
2013-07-08 12:17:00,79.3,66.7,29.80,SSW,208,6.3,10.1,65,0.00,,OVC021,0.00,VWS V14.01,2013-07-08 16:17:00,
2013-07-08 12:22:00,79.3,65.8,29.80,WSW,244,5.4,10.1,63,0.00,,OVC021,0.00,VWS V14.01,2013-07-08 16:22:00,
2013-07-08 12:28:00,79.7,65.6,29.80,WSW,246,8.1,10.1,62,0.00,,OVC021,0.00,VWS V14.01,2013-07-08 16:28:00,
2013-07-08 12:33:00,79.9,65.8,29.80,SW,225,4.0,8.3,62,0.00,,BKN013,0.00,VWS V14.01,2013-07-08 16:33:00,
2013-07-08 12:38:00,80.6,65.0,29.80,WSW,238,8.3,8.7,59,0.00,,BKN013,0.00,VWS V14.01,2013-07-08 16:38:00,
2013-07-08 12:44:00,81.3,66.7,29.80,WSW,246,8.3,10.5,61,0.00,,BKN013,0.00,VWS V14.01,2013-07-08 16:44:00,
2013-07-08 12:49:00,79.5,63.5,29.80,West,274,8.1,8.1,58,0.00,,BKN013,0.00,VWS V14.01,2013-07-08 16:49:00,
2013-07-08 12:55:00,79.2,63.7,29.80,WNW,296,9.6,9.6,59,0.00,,BKN013,0.00,VWS V14.01,2013-07-08 16:55:00,
2013-07-08 13:00:00,79.0,62.5,29.80,WNW,298,5.8,9.6,57,0.00,,BKN013,0.00,VWS V14.01,2013-07-08 17:00:00,
2013-07-08 13:05:00,80.2,65.2,29.80,SW,225,5.8,5.8,60,0.00,,SCT250,0.00,VWS V14.01,2013-07-08 17:05:00,
2013-07-08 13:10:00,80.1,64.5,29.80,West,271,10.1,10.1,59,0.00,,SCT250,0.00,VWS V14.01,2013-07-08 17:10:00,
2013-07-08 13:17:00,80.4,62.8,29.80,North,357,4.9,10.1,55,0.00,,SCT250,0.00,VWS V14.01,2013-07-08 17:17:00,
2013-07-08 13:25:00,80.6,63.5,29.78,WSW,258,4.0,4.0,56,0.00,,SCT250,0.00,VWS V14.01,2013-07-08 17:25:00,
2013-07-08 13:30:00,80.4,63.3,29.78,West,266,6.7,8.1,56,0.00,,SCT250,0.00,VWS V14.01,2013-07-08 17:30:00,
2013-07-08 13:35:00,80.8,64.7,29.78,WSW,238,12.8,12.8,58,0.00,,SCT250,0.00,VWS V14.01,2013-07-08 17:35:00,
2013-07-08 13:40:00,81.3,65.2,29.78,SW,227,6.3,7.6,58,0.00,,SCT250,0.00,VWS V14.01,2013-07-08 17:40:00,
2013-07-08 13:46:00,81.0,63.9,29.78,NNW,328,5.8,6.3,56,0.00,,SCT250,0.00,VWS V14.01,2013-07-08 17:46:00,
2013-07-08 13:51:00,81.0,65.4,29.78,North,0,3.1,4.9,59,0.00,,SCT250,0.00,VWS V14.01,2013-07-08 17:51:00,
2013-07-08 13:56:00,81.7,65.6,29.78,West,267,2.7,7.6,58,0.00,,SCT250,0.00,VWS V14.01,2013-07-08 17:56:00,
2013-07-08 14:01:00,81.9,65.2,29.78,WNW,290,8.3,8.3,57,0.00,,SCT250,0.00,VWS V14.01,2013-07-08 18:01:00,
2013-07-08 14:08:00,81.0,63.3,29.78,WNW,302,2.7,7.2,55,0.00,,SCT250,0.00,VWS V14.01,2013-07-08 18:08:00,
2013-07-08 14:13:00,81.9,64.7,29.78,WSW,239,5.4,5.8,56,0.00,,SCT250,0.00,VWS V14.01,2013-07-08 18:13:00,
2013-07-08 14:18:00,81.9,64.7,29.78,WSW,239,4.0,8.7,56,0.00,,SCT250,0.00,VWS V14.01,2013-07-08 18:18:00,
2013-07-08 14:26:00,82.6,65.9,29.78,SW,232,5.8,8.3,57,0.00,,SCT250,0.00,VWS V14.01,2013-07-08 18:26:00,
2013-07-08 14:32:00,82.2,64.0,29.78,WSW,237,3.1,7.6,54,0.00,,SCT250,0.00,VWS V14.01,2013-07-08 18:32:00,
2013-07-08 14:37:00,82.9,66.2,29.78,WSW,247,3.6,6.3,57,0.00,,SCT250,0.00,VWS V14.01,2013-07-08 18:37:00,
2013-07-08 14:42:00,82.6,64.8,29.78,WNW,286,3.1,8.1,55,0.00,,SCT250,0.00,VWS V14.01,2013-07-08 18:42:00,
2013-07-08 14:47:00,82.8,63.4,29.78,SSW,202,2.2,8.3,52,0.00,,SCT250,0.00,VWS V14.01,2013-07-08 18:47:00,
2013-07-08 14:53:00,82.9,64.6,29.78,West,276,5.8,5.8,54,0.00,,SCT250,0.00,VWS V14.01,2013-07-08 18:53:00,
2013-07-08 14:59:00,82.8,64.5,29.78,West,280,5.4,8.7,54,0.00,,SCT250,0.00,VWS V14.01,2013-07-08 18:59:00,
2013-07-08 15:04:00,82.9,64.1,29.78,WSW,248,6.3,8.7,53,0.00,,SCT250,0.00,VWS V14.01,2013-07-08 19:04:00,
2013-07-08 15:11:00,82.4,61.9,29.78,NNW,327,5.4,6.3,50,0.00,,SCT250,0.00,VWS V14.01,2013-07-08 19:11:00,
2013-07-08 15:16:00,82.9,63.5,29.78,WSW,242,5.8,8.7,52,0.00,,SCT250,0.00,VWS V14.01,2013-07-08 19:16:00,
2013-07-08 15:21:00,82.4,63.6,29.78,NW,304,0.0,5.8,53,0.00,,SCT250,0.00,VWS V14.01,2013-07-08 19:21:00,
2013-07-08 15:27:00,82.8,63.4,29.78,South,178,3.6,7.2,52,0.00,,SCT250,0.00,VWS V14.01,2013-07-08 19:27:00,
2013-07-08 15:33:00,83.3,63.9,29.78,NNE,14,5.8,6.7,52,0.00,,SCT250,0.00,VWS V14.01,2013-07-08 19:33:00,
2013-07-08 15:40:00,83.3,62.1,29.78,SW,221,2.7,8.3,49,0.00,,SCT250,0.00,VWS V14.01,2013-07-08 19:40:00,
2013-07-08 15:45:00,83.3,62.7,29.78,SSW,207,5.8,7.6,50,0.00,,SCT250,0.00,VWS V14.01,2013-07-08 19:45:00,
2013-07-08 15:53:00,83.7,63.6,29.75,West,271,4.0,8.7,51,0.00,,SCT250,0.00,VWS V14.01,2013-07-08 19:53:00,
2013-07-08 15:59:00,83.1,63.7,29.75,WSW,248,4.0,7.6,52,0.00,,SCT250,0.00,VWS V14.01,2013-07-08 19:59:00,
2013-07-08 16:06:00,82.8,60.5,29.75,NW,311,8.1,8.7,47,0.00,,SCT250,0.00,VWS V14.01,2013-07-08 20:06:00,
2013-07-08 16:11:00,82.8,61.0,29.75,NW,305,5.8,5.8,48,0.00,,SCT250,0.00,VWS V14.01,2013-07-08 20:11:00,
2013-07-08 16:16:00,82.8,61.7,29.75,WNW,299,5.4,5.4,49,0.00,,SCT250,0.00,VWS V14.01,2013-07-08 20:16:00,
2013-07-08 16:22:00,82.0,59.8,29.75,SW,234,3.6,7.6,47,0.00,,SCT250,0.00,VWS V14.01,2013-07-08 20:22:00,
2013-07-08 16:27:00,82.2,61.7,29.75,SSW,204,4.0,8.3,50,0.00,,SCT250,0.00,VWS V14.01,2013-07-08 20:27:00,
2013-07-08 16:32:00,82.4,61.9,29.75,SSW,205,5.8,8.3,50,0.00,,SCT250,0.00,VWS V14.01,2013-07-08 20:32:00,
2013-07-08 16:37:00,82.8,62.8,29.75,SW,233,3.6,8.1,51,0.00,,BKN250,0.00,VWS V14.01,2013-07-08 20:37:00,
2013-07-08 16:44:00,82.4,60.7,29.75,SW,214,4.0,8.1,48,0.00,,BKN250,0.00,VWS V14.01,2013-07-08 20:44:00,
2013-07-08 16:50:00,82.8,61.7,29.75,WSW,240,4.0,5.4,49,0.00,,BKN250,0.00,VWS V14.01,2013-07-08 20:50:00,
2013-07-08 16:57:00,82.0,61.0,29.75,SW,219,5.8,8.3,49,0.00,,BKN250,0.00,VWS V14.01,2013-07-08 20:57:00,
2013-07-08 17:03:00,82.4,62.5,29.75,SW,226,3.6,8.7,51,0.00,,BKN250,0.00,VWS V14.01,2013-07-08 21:03:00,
2013-07-08 17:09:00,82.0,62.1,29.75,WSW,251,5.4,8.1,51,0.00,,BKN250,0.00,VWS V14.01,2013-07-08 21:09:00,
2013-07-08 17:14:00,81.7,61.8,29.75,SSW,207,6.3,10.1,51,0.00,,BKN250,0.00,VWS V14.01,2013-07-08 21:14:00,
2013-07-08 17:20:00,81.1,61.3,29.75,WNW,283,5.8,7.6,51,0.00,,BKN250,0.00,VWS V14.01,2013-07-08 21:20:00,
2013-07-08 17:29:00,81.0,61.7,29.75,SW,228,4.9,8.7,52,0.00,,BKN250,0.00,VWS V14.01,2013-07-08 21:29:00,
2013-07-08 17:35:00,81.0,62.8,29.75,NW,318,3.6,5.8,54,0.00,,BKN250,0.00,VWS V14.01,2013-07-08 21:35:00,
2013-07-08 17:42:00,80.8,62.6,29.78,SW,226,3.6,3.6,54,0.00,,BKN250,0.00,VWS V14.01,2013-07-08 21:42:00,
2013-07-08 17:47:00,80.1,60.9,29.78,NW,308,2.7,5.4,52,0.00,,BKN250,0.00,VWS V14.01,2013-07-08 21:47:00,
2013-07-08 17:53:00,79.7,61.1,29.78,West,267,10.1,10.1,53,0.00,,BKN250,0.00,VWS V14.01,2013-07-08 21:53:00,
2013-07-08 17:58:00,79.7,61.6,29.78,NNW,348,6.3,8.3,54,0.00,,BKN250,0.00,VWS V14.01,2013-07-08 21:58:00,
2013-07-08 18:04:00,79.2,61.1,29.78,WSW,238,5.4,8.1,54,0.00,,BKN250,0.00,VWS V14.01,2013-07-08 22:04:00,
2013-07-08 18:09:00,79.2,61.1,29.75,SW,230,6.3,7.6,54,0.00,,BKN250,0.00,VWS V14.01,2013-07-08 22:09:00,
2013-07-08 18:16:00,78.6,60.6,29.75,WSW,237,5.8,7.6,54,0.00,,BKN250,0.00,VWS V14.01,2013-07-08 22:16:00,
2013-07-08 18:21:00,78.6,61.7,29.75,SSW,209,5.8,8.1,56,0.00,,BKN250,0.00,VWS V14.01,2013-07-08 22:21:00,
2013-07-08 18:28:00,78.6,61.2,29.78,SSW,212,2.7,4.9,55,0.00,,BKN250,0.00,VWS V14.01,2013-07-08 22:28:00,
2013-07-08 18:35:00,78.4,61.0,29.78,SSW,213,4.9,7.6,55,0.00,,BKN250,0.00,VWS V14.01,2013-07-08 22:35:00,
2013-07-08 18:42:00,78.1,60.7,29.78,WSW,248,2.2,4.0,55,0.00,,BKN250,0.00,VWS V14.01,2013-07-08 22:42:00,
2013-07-08 18:47:00,78.1,61.2,29.78,SW,235,6.3,6.3,56,0.00,,BKN250,0.00,VWS V14.01,2013-07-08 22:47:00,
2013-07-08 18:54:00,77.7,59.8,29.78,SW,232,8.1,10.1,54,0.00,,BKN250,0.00,VWS V14.01,2013-07-08 22:54:00,
2013-07-08 18:59:00,77.5,59.6,29.78,SW,227,8.3,8.7,54,0.00,,BKN250,0.00,VWS V14.01,2013-07-08 22:59:00,
2013-07-08 19:07:00,77.2,58.2,29.78,SW,227,5.8,5.8,52,0.00,,BKN250,0.00,VWS V14.01,2013-07-08 23:07:00,
2013-07-08 19:12:00,77.0,58.6,29.78,WNW,291,5.4,8.1,53,0.00,,BKN250,0.00,VWS V14.01,2013-07-08 23:12:00,
2013-07-08 19:18:00,76.8,59.0,29.78,WSW,252,6.3,6.3,54,0.00,,BKN250,0.00,VWS V14.01,2013-07-08 23:18:00,
2013-07-08 19:26:00,76.5,58.6,29.78,SW,231,5.8,8.7,54,0.00,,BKN250,0.00,VWS V14.01,2013-07-08 23:26:00,
2013-07-08 19:31:00,76.5,59.2,29.78,SW,234,5.4,6.3,55,0.00,,BKN250,0.00,VWS V14.01,2013-07-08 23:31:00,
2013-07-08 19:36:00,76.3,59.0,29.78,SW,220,2.7,5.8,55,0.00,,OVC250,0.00,VWS V14.01,2013-07-08 23:36:00,
2013-07-08 19:43:00,76.1,58.8,29.78,SW,230,3.6,5.8,55,0.00,,OVC250,0.00,VWS V14.01,2013-07-08 23:43:00,
2013-07-08 19:49:00,75.9,59.2,29.78,SW,214,2.7,6.3,56,0.00,,OVC250,0.00,VWS V14.01,2013-07-08 23:49:00,
2013-07-08 19:55:00,75.9,59.2,29.78,SSW,213,5.4,6.3,56,0.00,,OVC250,0.00,VWS V14.01,2013-07-08 23:55:00,
2013-07-08 20:00:00,75.7,59.5,29.78,SW,224,4.0,5.8,57,0.00,,OVC250,0.00,VWS V14.01,2013-07-09 00:00:00,
2013-07-08 20:05:00,75.7,59.5,29.78,SW,221,5.4,6.7,57,0.00,,OVC250,0.00,VWS V14.01,2013-07-09 00:05:00,
2013-07-08 20:11:00,75.6,59.8,29.78,SW,221,4.0,4.5,58,0.00,,OVC250,0.00,VWS V14.01,2013-07-09 00:11:00,
2013-07-08 20:16:00,75.4,59.7,29.78,SSW,206,4.0,5.8,58,0.00,,OVC250,0.00,VWS V14.01,2013-07-09 00:16:00,
2013-07-08 20:23:00,75.4,59.7,29.78,SW,231,4.0,4.0,58,0.00,,OVC250,0.00,VWS V14.01,2013-07-09 00:23:00,
2013-07-08 20:28:00,75.2,60.0,29.78,SW,223,2.7,4.0,59,0.00,,OVC250,0.00,VWS V14.01,2013-07-09 00:28:00,
2013-07-08 20:33:00,75.2,60.0,29.78,SW,235,2.7,3.1,59,0.00,,BKN250,0.00,VWS V14.01,2013-07-09 00:33:00,
2013-07-08 20:40:00,74.8,60.1,29.78,SW,217,3.1,5.4,60,0.00,,BKN250,0.00,VWS V14.01,2013-07-09 00:40:00,
2013-07-08 20:46:00,74.8,60.1,29.78,SW,218,3.1,4.0,60,0.00,,BKN250,0.00,VWS V14.01,2013-07-09 00:46:00,
2013-07-08 20:52:00,74.7,60.4,29.78,West,266,3.1,3.6,61,0.00,,BKN250,0.00,VWS V14.01,2013-07-09 00:52:00,
2013-07-08 20:57:00,74.5,60.7,29.78,SW,231,3.6,3.6,62,0.00,,BKN250,0.00,VWS V14.01,2013-07-09 00:57:00,
2013-07-08 21:04:00,74.1,60.4,29.78,WSW,255,0.0,3.6,62,0.00,,BKN250,0.00,VWS V14.01,2013-07-09 01:04:00,
2013-07-08 21:11:00,74.1,60.4,29.78,SW,235,4.0,4.9,62,0.00,,BKN250,0.00,VWS V14.01,2013-07-09 01:11:00,
2013-07-08 21:17:00,74.1,60.4,29.78,SW,232,2.2,3.6,62,0.00,,BKN250,0.00,VWS V14.01,2013-07-09 01:17:00,
2013-07-08 21:22:00,73.9,60.7,29.78,SW,227,3.6,3.6,63,0.00,,BKN250,0.00,VWS V14.01,2013-07-09 01:22:00,
2013-07-08 21:28:00,73.8,60.5,29.78,SW,215,3.6,3.6,63,0.00,,BKN250,0.00,VWS V14.01,2013-07-09 01:28:00,
2013-07-08 21:34:00,73.4,60.2,29.78,SW,230,0.0,0.0,63,0.00,,BKN250,0.00,VWS V14.01,2013-07-09 01:34:00,
2013-07-08 21:40:00,73.4,60.6,29.78,SW,228,0.0,3.6,64,0.00,,BKN250,0.00,VWS V14.01,2013-07-09 01:40:00,
2013-07-08 21:45:00,73.4,60.6,29.78,SW,218,0.0,5.4,64,0.00,,BKN250,0.00,VWS V14.01,2013-07-09 01:45:00,
2013-07-08 21:50:00,73.4,60.6,29.78,SW,228,0.0,0.0,64,0.00,,BKN250,0.00,VWS V14.01,2013-07-09 01:50:00,
2013-07-08 21:58:00,73.4,61.0,29.78,SW,218,3.6,4.0,65,0.00,,BKN250,0.00,VWS V14.01,2013-07-09 01:58:00,
2013-07-08 22:04:00,73.4,61.0,29.78,SW,218,0.0,3.6,65,0.00,,BKN250,0.00,VWS V14.01,2013-07-09 02:04:00,
2013-07-08 22:09:00,73.2,61.3,29.78,SW,218,0.0,3.1,66,0.00,,BKN250,0.00,VWS V14.01,2013-07-09 02:09:00,
2013-07-08 22:15:00,73.0,61.2,29.78,SW,218,0.0,0.0,66,0.00,,BKN250,0.00,VWS V14.01,2013-07-09 02:15:00,
2013-07-08 22:21:00,73.0,61.6,29.78,SW,218,2.7,3.6,67,0.00,,BKN250,0.00,VWS V14.01,2013-07-09 02:21:00,
2013-07-08 22:27:00,73.0,61.6,29.78,SW,218,0.0,2.7,67,0.00,,BKN250,0.00,VWS V14.01,2013-07-09 02:27:00,
2013-07-08 22:33:00,72.9,61.4,29.78,SW,221,0.0,3.1,67,0.00,,CLR,0.00,VWS V14.01,2013-07-09 02:33:00,
2013-07-08 22:38:00,72.9,61.4,29.78,SW,222,0.0,2.7,67,0.00,,CLR,0.00,VWS V14.01,2013-07-09 02:38:00,
2013-07-08 22:44:00,72.7,61.7,29.78,West,260,3.1,4.9,68,0.00,,CLR,0.00,VWS V14.01,2013-07-09 02:44:00,
2013-07-08 22:50:00,72.7,61.7,29.78,SW,225,2.7,2.7,68,0.00,,CLR,0.00,VWS V14.01,2013-07-09 02:50:00,
2013-07-08 22:55:00,72.5,61.5,29.78,SW,227,2.7,3.6,68,0.00,,CLR,0.00,VWS V14.01,2013-07-09 02:55:00,
2013-07-08 23:02:00,72.7,61.7,29.78,SW,225,2.7,3.6,68,0.00,,CLR,0.00,VWS V14.01,2013-07-09 03:02:00,
2013-07-08 23:07:00,72.7,61.7,29.78,SSW,209,2.7,3.1,68,0.00,,CLR,0.00,VWS V14.01,2013-07-09 03:07:00,
2013-07-08 23:12:00,72.5,61.5,29.78,SSW,209,0.0,2.7,68,0.00,,CLR,0.00,VWS V14.01,2013-07-09 03:12:00,
2013-07-08 23:18:00,72.1,61.6,29.78,SSW,210,2.2,3.6,69,0.00,,CLR,0.00,VWS V14.01,2013-07-09 03:18:00,
2013-07-08 23:24:00,72.3,61.7,29.78,SSW,210,0.0,2.7,69,0.00,,CLR,0.00,VWS V14.01,2013-07-09 03:24:00,
2013-07-08 23:31:00,72.5,61.9,29.78,SSW,210,2.2,4.0,69,0.00,,CLR,0.00,VWS V14.01,2013-07-09 03:31:00,
2013-07-08 23:40:00,72.3,61.7,29.78,SW,214,3.1,3.6,69,0.00,,OVC200,0.00,VWS V14.01,2013-07-09 03:40:00,
2013-07-08 23:45:00,72.3,61.7,29.78,SSW,210,2.2,2.2,69,0.00,,OVC200,0.00,VWS V14.01,2013-07-09 03:45:00,
2013-07-08 23:53:00,72.1,62.0,29.78,SSW,210,2.2,3.6,70,0.00,,OVC200,0.00,VWS V14.01,2013-07-09 03:53:00,